Regional Weather Roundup
Issued by NWS

Home | Current Version | Previous Version | Text Only | Print | Product List | Glossary On
Versions: 1 2 3 4 5 6 7 8 9 10 11 12 13 14 15 16 17 18 19 20 21 22 23 24 25 26 27 28
000
ASUS44 KJAN 301510
RWRMS

MISSISSIPPI HOURLY WEATHER ROUNDUP
NATIONAL WEATHER SERVICE JACKSON MS
1000 AM CDT SUN APR 30 2017

NOTE: "FAIR: INDICATES FEW OR NO CLOUDS BELOW 12,000 FEET WITH NO
SIGNIFICANT WEATHER AND/OR OBSTRUCTIONS TO VISIBILITY.

MSZ001>002-007>008-010>013-018>021-025>028-034>036-301600-
NORTHWEST MISSISSIPPI

CITY           SKY/WX    TMP DP  RH WIND       PRES   REMARKS
BATESVILLE     RAIN      72  70  94 SE7       29.79F
CLARKSDALE     CLOUDY    72  72 100 SE18G29   29.73F FOG
CLEVELAND      TSTM      72  72 100 SE9G24    29.68F
GREENWOOD      TSTM      66  66 100 S8G21     29.76S FOG
GREENVILLE     LGT RAIN  68  65  90 W15       29.72F
OLIVE BRANCH   TSTM     N/A N/A N/A S17G28    29.78S FOG
OXFORD         LGT RAIN  68  68 100 SE10G16   29.82F
TUNICA         RAIN      70  70 100 SE23G30   29.74F
WINONA         TSTM      71  71 100 E6        29.77F
$$

MSZ003>006-009-014>017-022>024-029>033-037>039-301600-
NORTHEAST MISSISSIPPI

CITY           SKY/WX    TMP DP  RH WIND       PRES   REMARKS
COLUMBUS AFB   CLOUDY    75  68  78 S15G21    29.89S
CORINTH        FAIR      75  64  69 S18       29.86S
GOLDN TRIANGLE PTSUNNY   73  63  68 S16G23    29.85R
STARKVILLE     LGT RAIN  72  68  88 SE13      29.90R
TUPELO         LGT RAIN  73  65  75 SE16G22   29.88R
$$

MSZ040-058-301600-
CENTRAL MISSISSIPPI

CITY           SKY/WX    TMP DP  RH WIND       PRES   REMARKS
JACKSON INTL   TSTM      68  66  93 SE21      29.87R
JACKSON HAWKNS RAIN      68  66  93 SE14      29.80F FOG
MADISON        CLOUDY    66  64  94 SE8       29.86R THUNDER
MERIDIAN KEY   CLOUDY    75  70  84 S14       29.92R
MERIDIAN NAS   CLOUDY    76  66  71 S13G21    29.92R
RAYMOND          N/A    N/A N/A N/A MISG        N/A
VICKSBURG VKS  CLOUDY    68  66  94 S12       29.78R
$$

MSZ059>079-301600-
SOUTH MISSISSIPPI

CITY           SKY/WX    TMP DP  RH WIND       PRES   REMARKS
HATTIESBURG    LGT RAIN  77  72  84 S14G26    29.91R
LAUREL         CLOUDY    75  74  99 SE6       29.92R
MCCOMB         LGT RAIN  67  64  90 S14       29.86F
NATCHEZ        LGT RAIN  66  64  94 CALM      29.82F FOG
PINE BELT      CLOUDY    77  70  78 S12G20    29.92R
$$

MSZ080>082-301600-
COASTAL MISSISSIPPI

CITY           SKY/WX    TMP DP  RH WIND       PRES   REMARKS
BAY ST LOUIS   CLOUDY    79  72  78 S12G23    29.91R
BILOXI         CLOUDY    79  74  85 S13G21    29.94R
PASCAGOULA     CLOUDY    78  72  81 S18G24    29.95R
GULFPORT       CLOUDY    79  75  87 SE14G24   29.93R FOG
$$

LAZ007>009-015>016-023>026-301600-
NORTHEAST LOUISIANA

CITY           SKY/WX    TMP DP  RH WIND       PRES   REMARKS
BASTROP        FAIR      62  62  98 SW3       29.77S
TALLULAH/VBURG CLOUDY    69  66  90 S13       29.79R
VIDALIA        CLOUDY   N/A N/A N/A CALM      29.81R
$$




USA.gov is the U.S. government's official web portal to all federal, state and local government web resources and services.